Previsão horária em Barnstaple

Hoje, 22 Outubro, Quinta-feira

Tempo Temperatura Precipitação Vento Pressão Humidade
00:00 +10°C° 0.3 mm 5 m/s 746 mmHg 96%
01:00 +10°C° 0.1 mm 5 m/s 746 mmHg 96%
02:00 +9°C° 0.1 mm 5 m/s 747 mmHg 95%
03:00 +9°C° 0.1 mm 5 m/s 747 mmHg 95%
04:00 +10°C° 0 mm 4 m/s 747 mmHg 95%
05:00 +8°C° 0 mm 4 m/s 748 mmHg 94%
06:00 +9°C° 0 mm 3 m/s 748 mmHg 94%
07:00 +10°C° 0 mm 3 m/s 749 mmHg 92%
08:00 +10°C° 0 mm 3 m/s 749 mmHg 90%
09:00 +11°C° 0 mm 3 m/s 750 mmHg 88%
10:00 +11°C° 0 mm 3 m/s 750 mmHg 86%
11:00 +12°C° 0 mm 3 m/s 750 mmHg 83%
12:00 +13°C° 0 mm 4 m/s 750 mmHg 81%
13:00 +13°C° 0 mm 3 m/s 750 mmHg 81%
14:00 +12°C° 0 mm 3 m/s 750 mmHg 81%
15:00 +12°C° 0 mm 3 m/s 750 mmHg 81%
16:00 +12°C° 0 mm 2 m/s 750 mmHg 84%
17:00 +11°C° 0 mm 1 m/s 750 mmHg 87%
18:00 +10°C° 0 mm 1 m/s 750 mmHg 90%
19:00 +10°C° 0 mm 1 m/s 750 mmHg 91%
20:00 +10°C° 0 mm 1 m/s 750 mmHg 92%
21:00 +10°C° 0 mm 1 m/s 751 mmHg 93%
22:00 +10°C° 0 mm 1 m/s 750 mmHg 94%
23:00 +10°C° 0 mm 2 m/s 750 mmHg 94%

Amanhã, 23 Outubro, Sexta-feira

Tempo Temperatura Precipitação Vento Pressão Humidade
00:00 +10°C° 0 mm 2 m/s 750 mmHg 95%
01:00 +10°C° 0.1 mm 3 m/s 749 mmHg 95%
02:00 +10°C° 0.1 mm 4 m/s 749 mmHg 95%
03:00 +10°C° 0.1 mm 4 m/s 749 mmHg 96%
04:00 +10°C° 0.2 mm 4 m/s 748 mmHg 96%
05:00 +10°C° 0.2 mm 4 m/s 748 mmHg 96%
06:00 +10°C° 0.2 mm 4 m/s 748 mmHg 96%
07:00 +11°C° 0.1 mm 4 m/s 748 mmHg 94%
08:00 +10°C° 0.1 mm 5 m/s 748 mmHg 93%
09:00 +10°C° 0.1 mm 5 m/s 748 mmHg 91%
10:00 +10°C° 0.1 mm 6 m/s 749 mmHg 89%
11:00 +11°C° 0.1 mm 7 m/s 749 mmHg 88%
12:00 +11°C° 0.1 mm 8 m/s 749 mmHg 86%
13:00 +11°C° 0 mm 8 m/s 750 mmHg 83%
14:00 +10°C° 0 mm 7 m/s 750 mmHg 79%
15:00 +10°C° 0 mm 7 m/s 750 mmHg 76%
16:00 +9°C° 0 mm 7 m/s 751 mmHg 79%
17:00 +8°C° 0 mm 6 m/s 751 mmHg 81%
18:00 +7°C° 0 mm 5 m/s 751 mmHg 84%
19:00 +6°C° 0 mm 5 m/s 751 mmHg 85%
20:00 +6°C° 0 mm 5 m/s 751 mmHg 86%
21:00 +5°C° 0 mm 5 m/s 752 mmHg 87%
22:00 +5°C° 0 mm 6 m/s 751 mmHg 87%
23:00 +5°C° 0 mm 6 m/s 751 mmHg 87%

Depois de amanhã, 24 Outubro, Sábado

Tempo Temperatura Precipitação Vento Pressão Humidade
00:00 +5°C° 0 mm 7 m/s 751 mmHg 86%
01:00 +5°C° 0 mm 7 m/s 750 mmHg 87%
02:00 +6°C° 0 mm 8 m/s 750 mmHg 87%
03:00 +7°C° 0 mm 8 m/s 749 mmHg 87%
04:00 +7°C° 0 mm 9 m/s 749 mmHg 87%
05:00 +8°C° 0 mm 10 m/s 748 mmHg 87%
06:00 +8°C° 0 mm 10 m/s 747 mmHg 86%
07:00 +9°C° 0 mm 11 m/s 746 mmHg 86%
08:00 +10°C° 0 mm 12 m/s 746 mmHg 86%
09:00 +12°C° 0 mm 12 m/s 745 mmHg 85%
10:00 +12°C° 0 mm 12 m/s 744 mmHg 86%
11:00 +13°C° 0 mm 12 m/s 744 mmHg 86%
12:00 +13°C° 0 mm 11 m/s 743 mmHg 87%
13:00 +13°C° 0.4 mm 12 m/s 743 mmHg 88%
14:00 +13°C° 0.4 mm 12 m/s 742 mmHg 89%
15:00 +14°C° 0.4 mm 13 m/s 741 mmHg 91%
16:00 +13°C° 4.2 mm 11 m/s 741 mmHg 92%
17:00 +12°C° 4.2 mm 9 m/s 740 mmHg 93%
18:00 +12°C° 4.2 mm 7 m/s 740 mmHg 94%
19:00 +11°C° 0.9 mm 8 m/s 740 mmHg 93%
20:00 +11°C° 0.9 mm 8 m/s 740 mmHg 93%
21:00 +10°C° 0.9 mm 9 m/s 740 mmHg 92%
22:00 +8°C° 0.1 mm 9 m/s 740 mmHg 91%
23:00 +9°C° 0.1 mm 8 m/s 741 mmHg 89%

, 25 Outubro, Domingo

Tempo Temperatura Precipitação Vento Pressão Humidade
00:00 +7°C° 0.1 mm 8 m/s 741 mmHg 88%
01:00 +7°C° 0.1 mm 8 m/s 741 mmHg 88%
02:00 +6°C° 0.1 mm 8 m/s 741 mmHg 88%
03:00 +6°C° 0.1 mm 8 m/s 741 mmHg 88%
04:00 +6°C° 0.1 mm 8 m/s 741 mmHg 88%
05:00 +6°C° 0.1 mm 8 m/s 741 mmHg 87%
06:00 +5°C° 0.1 mm 8 m/s 741 mmHg 87%
07:00 +6°C° 0.1 mm 8 m/s 741 mmHg 86%
08:00 +7°C° 0.1 mm 8 m/s 741 mmHg 84%
09:00 +7°C° 0.1 mm 9 m/s 742 mmHg 83%
10:00 +8°C° 0.3 mm 9 m/s 742 mmHg 81%
11:00 +10°C° 0.3 mm 9 m/s 742 mmHg 79%
12:00 +10°C° 0.3 mm 9 m/s 742 mmHg 76%
13:00 +10°C° 0.2 mm 8 m/s 742 mmHg 77%
14:00 +10°C° 0.2 mm 8 m/s 742 mmHg 78%
15:00 +10°C° 0.2 mm 8 m/s 742 mmHg 79%
16:00 +9°C° 0.1 mm 7 m/s 743 mmHg 82%
17:00 +8°C° 0.1 mm 6 m/s 743 mmHg 86%
18:00 +7°C° 0.1 mm 6 m/s 743 mmHg 90%
19:00 +6°C° 0 mm 5 m/s 744 mmHg 89%
20:00 +6°C° 0 mm 5 m/s 744 mmHg 89%
21:00 +6°C° 0 mm 4 m/s 744 mmHg 89%
22:00 +6°C° 0 mm 4 m/s 745 mmHg 89%
23:00 +6°C° 0 mm 4 m/s 745 mmHg 89%

25 Outubro, Domingo

Tempo Temperatura Precipitação Vento Pressão Humidade
00:00 +7°C° 0.1 mm 8 m/s 741 mmHg 88%
01:00 +7°C° 0.1 mm 8 m/s 741 mmHg 88%
02:00 +6°C° 0.1 mm 8 m/s 741 mmHg 88%
03:00 +6°C° 0.1 mm 8 m/s 741 mmHg 88%
04:00 +6°C° 0.1 mm 8 m/s 741 mmHg 88%
05:00 +6°C° 0.1 mm 8 m/s 741 mmHg 87%
06:00 +5°C° 0.1 mm 8 m/s 741 mmHg 87%
07:00 +6°C° 0.1 mm 8 m/s 741 mmHg 86%
08:00 +7°C° 0.1 mm 8 m/s 741 mmHg 84%
09:00 +7°C° 0.1 mm 9 m/s 742 mmHg 83%
10:00 +8°C° 0.3 mm 9 m/s 742 mmHg 81%
11:00 +10°C° 0.3 mm 9 m/s 742 mmHg 79%
12:00 +10°C° 0.3 mm 9 m/s 742 mmHg 76%
13:00 +10°C° 0.2 mm 8 m/s 742 mmHg 77%
14:00 +10°C° 0.2 mm 8 m/s 742 mmHg 78%
15:00 +10°C° 0.2 mm 8 m/s 742 mmHg 79%
16:00 +9°C° 0.1 mm 7 m/s 743 mmHg 82%
17:00 +8°C° 0.1 mm 6 m/s 743 mmHg 86%
18:00 +7°C° 0.1 mm 6 m/s 743 mmHg 90%
19:00 +6°C° 0 mm 5 m/s 744 mmHg 89%
20:00 +6°C° 0 mm 5 m/s 744 mmHg 89%
21:00 +6°C° 0 mm 4 m/s 744 mmHg 89%
22:00 +6°C° 0 mm 4 m/s 745 mmHg 89%
23:00 +6°C° 0 mm 4 m/s 745 mmHg 89%

26 Outubro, Segunda-feira

Tempo Temperatura Precipitação Vento Pressão Humidade
00:00 +5°C° 0 mm 4 m/s 745 mmHg 89%
01:00 +5°C° 0.1 mm 4 m/s 745 mmHg 90%
02:00 +5°C° 0.1 mm 3 m/s 746 mmHg 90%
03:00 +5°C° 0.1 mm 3 m/s 746 mmHg 90%
04:00 +5°C° 0.2 mm 3 m/s 746 mmHg 90%
05:00 +5°C° 0.2 mm 3 m/s 747 mmHg 90%
06:00 +5°C° 0.2 mm 3 m/s 748 mmHg 90%
07:00 +7°C° 0.1 mm 3 m/s 748 mmHg 88%
08:00 +8°C° 0.1 mm 3 m/s 749 mmHg 87%
09:00 +9°C° 0.1 mm 3 m/s 749 mmHg 85%
10:00 +10°C° 0 mm 4 m/s 750 mmHg 81%
11:00 +11°C° 0 mm 4 m/s 750 mmHg 77%
12:00 +12°C° 0 mm 4 m/s 751 mmHg 73%
13:00 +11°C° 0 mm 4 m/s 751 mmHg 74%
14:00 +11°C° 0 mm 4 m/s 751 mmHg 75%
15:00 +11°C° 0 mm 4 m/s 751 mmHg 75%
16:00 +10°C° 0 mm 4 m/s 751 mmHg 80%
17:00 +8°C° 0 mm 3 m/s 752 mmHg 84%
18:00 +7°C° 0 mm 2 m/s 752 mmHg 88%
19:00 +7°C° 0 mm 2 m/s 752 mmHg 88%
20:00 +6°C° 0 mm 2 m/s 752 mmHg 89%
21:00 +6°C° 0 mm 2 m/s 752 mmHg 89%
22:00 +5°C° 0 mm 3 m/s 752 mmHg 89%
23:00 +5°C° 0 mm 4 m/s 752 mmHg 90%

27 Outubro, Terça-feira

Tempo Temperatura Precipitação Vento Pressão Humidade
00:00 +5°C° 0 mm 4 m/s 751 mmHg 90%
01:00 +6°C° 0 mm 5 m/s 751 mmHg 89%
02:00 +7°C° 0 mm 5 m/s 751 mmHg 88%
03:00 +7°C° 0 mm 6 m/s 750 mmHg 87%
04:00 +7°C° 0.1 mm 6 m/s 750 mmHg 88%
05:00 +8°C° 0.1 mm 7 m/s 749 mmHg 89%
06:00 +7°C° 0.1 mm 8 m/s 749 mmHg 90%
07:00 +9°C° 0.1 mm 8 m/s 748 mmHg 91%
08:00 +8°C° 0.1 mm 9 m/s 748 mmHg 91%
09:00 +9°C° 0.1 mm 10 m/s 747 mmHg 91%
10:00 +9°C° 0.5 mm 10 m/s 747 mmHg 92%
11:00 +11°C° 0.5 mm 11 m/s 746 mmHg 92%
12:00 +11°C° 0.5 mm 11 m/s 746 mmHg 93%
13:00 +11°C° 0.6 mm 10 m/s 746 mmHg 93%
14:00 +12°C° 0.6 mm 8 m/s 746 mmHg 94%
15:00 +12°C° 0.6 mm 7 m/s 745 mmHg 94%
16:00 +11°C° 0.2 mm 7 m/s 746 mmHg 92%
17:00 +10°C° 0.2 mm 6 m/s 746 mmHg 90%
18:00 +10°C° 0.2 mm 6 m/s 746 mmHg 87%
19:00 +9°C° 0 mm 6 m/s 747 mmHg 87%
20:00 +8°C° 0 mm 6 m/s 747 mmHg 87%
21:00 +7°C° 0 mm 6 m/s 748 mmHg 87%
22:00 +7°C° 0 mm 6 m/s 748 mmHg 88%
23:00 +5°C° 0 mm 6 m/s 748 mmHg 88%
Mostrar mais